Weather History for Lamar, CO

Change the Weather History Date:

Tuesday, May 22, 2012

  Actual Average Record
Temperature  
Mean Temperature 76 °F 64 °F  
Max Temperature 100 °F 80 °F 101 °F (1964)
Min Temperature 51 °F 48 °F 30 °F (1931)
Degree Days  
Heating Degree Days 0 3  
Month to date heating degree days 77 121  
Since 1 July heating degree days 4945 5521  
Cooling Degree Days 11 2  
Month to date cooling degree days 27 28  
Year to date cooling degree days 45 33  
Growing Degree Days 25 (Base 50)    
Moisture  
Dew Point 42 °F    
Average Humidity 51    
Maximum Humidity 96    
Minimum Humidity 6    
Precipitation  
Precipitation 0.00 in 0.08 in 1.38 in (1938)
Month to date precipitation 0.19 1.19  
Year to date precipitation 2.11 4.02  
Snow  
Snow 0.00 in - - ()
Month to date snowfall 0.0  
Snow Depth 0.00 in    
Sea Level Pressure  
Sea Level Pressure 29.62 in    
Wind  
Wind Speed 10 mph (South)    
Max Wind Speed 24 mph    
Max Gust Speed 33 mph    
Visibility 10 miles    
Events      
T = Trace of Precipitation, MM = Missing Value Source: NWS Daily Summary

Daily Weather History Graph

Daily Weather History Graph

Search for Another Location

Airport:

Trip Planner

Search our weather history database for the weather conditions in past years. The results will help you decide how hot, cold, wet, or windy it might be!

Date:

Astronomy

May. 22, 2012 Rise Set
Actual Time 5:34 AM MDT 8:00 PM MDT
Civil Twilight 5:04 AM MDT 8:31 PM MDT
Nautical Twilight 4:27 AM MDT 9:08 PM MDT
Astronomical Twilight 3:45 AM MDT 9:49 PM MDT
Moon 6:47 AM MDT (5/22) 9:40 PM MDT (5/22)
Length of Visible Light 15h 26m
Length of Day
14h 26m
Waxing Crescent, 3% of the Moon is Illuminated
May 22
Waxing Crescent
May 28
First Quarter
Jun 4
Full
Jun 11
Last Quarter
Jun 19
New

Hourly Weather History & Observations

Time (MDT) Temp. Dew Point Humidity Pressure Visibility Wind Dir Wind Speed Gust Speed Precip Events Conditions
12:53 AM 64.9 °F 54.0 °F 68% 29.85 in 10.0 mi South 10.4 mph - N/A   Clear
1:53 AM 63.0 °F 54.0 °F 72% 29.83 in 10.0 mi SE 5.8 mph - N/A   Clear
2:53 AM 55.9 °F 52.0 °F 87% 29.82 in 10.0 mi East 6.9 mph - N/A   Clear
3:53 AM 55.0 °F 52.0 °F 89% 29.81 in 10.0 mi East 8.1 mph - N/A   Clear
4:53 AM 55.9 °F 52.0 °F 87% 29.80 in 10.0 mi SSE 10.4 mph - N/A   Clear
5:53 AM 52.0 °F 50.0 °F 93% 29.81 in 8.0 mi Calm Calm - N/A   Clear
6:53 AM 54.0 °F 50.0 °F 86% 29.81 in 9.0 mi Calm Calm - N/A   Clear
7:53 AM 61.0 °F 48.9 °F 64% 29.78 in 10.0 mi SW 3.5 mph - N/A   Clear
8:53 AM 70.0 °F 52.0 °F 53% 29.76 in 10.0 mi Calm Calm - N/A   Clear
9:53 AM 80.1 °F 50.0 °F 35% 29.72 in 10.0 mi Variable 4.6 mph - N/A   Clear
10:53 AM 84.0 °F 46.9 °F 27% 29.68 in 10.0 mi Variable 3.5 mph - N/A   Clear
11:53 AM 89.1 °F 44.1 °F 21% 29.64 in 10.0 mi SSW 5.8 mph - N/A   Unknown
12:53 PM 93.0 °F 39.0 °F 15% 29.60 in 10.0 mi SW 9.2 mph 17.3 mph N/A   Clear
1:53 PM 95.0 °F 34.0 °F 12% 29.56 in 10.0 mi SSW 15.0 mph 18.4 mph N/A   Clear
2:53 PM 95.0 °F 28.9 °F 10% 29.54 in 10.0 mi Variable 4.6 mph 16.1 mph N/A   Clear
3:53 PM 98.1 °F 23.0 °F 7% 29.49 in 10.0 mi Variable 3.5 mph - N/A   Clear
4:53 PM 96.1 °F 19.9 °F 6% 29.47 in 10.0 mi West 5.8 mph 16.1 mph N/A   Clear
5:53 PM 95.0 °F 24.1 °F 8% 29.45 in 10.0 mi South 12.7 mph - N/A   Clear
6:53 PM 95.0 °F 28.0 °F 9% 29.42 in 10.0 mi South 17.3 mph 21.9 mph N/A   Clear
7:53 PM 87.1 °F 39.0 °F 18% 29.42 in 10.0 mi South 18.4 mph - N/A   Clear
8:53 PM 82.9 °F 39.0 °F 21% 29.39 in 10.0 mi South 21.9 mph 28.8 mph N/A   Clear
10:53 PM 79.0 °F 42.1 °F 27% 29.36 in 10.0 mi South 23.0 mph 29.9 mph N/A   Clear
11:53 PM 75.9 °F 42.1 °F 30% 29.34 in 10.0 mi SSW 16.1 mph - N/A   Clear